Location: Haulchin
(50.3172°N, 3.4360°E)
Time: 06:19:33
(UTC+00:00)

ATLAS 2AS CENTAUR R/B - Pass Details

Date: 23 May 2024
Orbit: 1017 x 1194 km, 63.7° (Epoch: 19 June)

Event Time Altitude Azimuth Distance (km) Brightness Sun altitude
Rises 01:29:49 0° 314° (NW) 3,933 5.9 -15.2°
Reaches altitude 10° 01:32:39 10° 319° (NW) 2,946 5.3 -15.0°
Maximum altitude 01:39:24 51° 35° (NE) 1,315 3.6 -14.5°
Drops below altitude 10° 01:45:53 10° 110° (ESE) 2,831 5.0 -14.0°
Sets 01:48:33 0° 116° (ESE) 3,767 5.6 -13.8°
